Weather in Mirnyy

Russia / Chelyabinsk Oblast     55°19′07″N   61°04′43″E
temp.,
°C
wind,
m/s
gust,
m/s
humid.,
%
clouds,
%
prec.,
mm/h
press.,
hPa
HPBL,
m
14 june, mon
mon1423:00+17sse335413 0.0 102233
02:00+14ssw346093 0.0 102245
05:00+16s475685 0.0 1022113
08:00+17ssw496193 0.0 1023173
11:00+23ssw6104381 0.0 1022560
14:00+26ssw683731 0.0 10211346
17:00+26sw574364 0.0 10201608
20:00+23ssw3559100 0.0 102070
15 june, tue
tue1523:00+18ssw475460 0.0 101993
02:00+16ssw495785 0.0 1019121
05:00+16ssw41158100 0.0 1019158
08:00+21ssw5105728 0.0 1018281
11:00+26sw674187 0.0 1017743
14:00+27ssw6841100 0.0 1016845
17:00+27sw574697 0.0 1015534
20:00+24wsw226394 0.0 101528
16 june, wed
wed1623:00+19nnw226795 0.0 101620
02:00+18ssw227191 0.4 101614
05:00+17sw227195 0.4 101620
08:00+22wsw34626 0.0 1015231
11:00+27sw35445 0.0 1014921
14:00+29sw553973 0.0 10131898
17:00+23e345537 1.7 101352
20:00+19ne22759 4.0 101335
17 june, thu
thu1723:00+17s4890100 5.3 1014152
02:00+17ssw468528 0.0 1011105
05:00+16ssw4108757 0.0 1010173
08:00+20ssw5127482 0.0 1009352
11:00+22sw486899 0.0 1007340
14:00+28sw67468 0.0 10051195
17:00+23nnw6668100 2.8 1003349
20:00+18wnw3490100 19.3 100683
18 june, fri
fri1823:00+15nnw8138875 19.3 1007616
02:00+13n91578100 0.0 1009827
05:00+12n8136558 0.0 1011983
08:00+12n813650 0.0 10131046
11:00+15n913482 0.0 10131489
14:00+17n913360 0.0 10141921
17:00+18nne813420 0.0 10152356
20:00+15n511530 0.0 1016370